Regional Weather Roundup
Issued by NWS

Home | Current Version | Previous Version | Text Only | Print | Product List | Glossary On
Versions: 1 2 3 4 5 6 7 8 9 10 11 12 13 14 15 16 17 18 19 20 21 22 23 24 25 26 27 28 29 30 31 32 33 34 35 36 37 38 39 40 41 42 43 44 45 46 47 48 49 50
000
ASUS45 KCYS 242210
RWRWY

WYOMING REGIONAL WEATHER ROUNDUP
NATIONAL WEATHER SERVICE CHEYENNE WY
300 PM MST MON NOV 24 2014

NOTE:  "FAIR" INDICATES FEW OR NO CLOUDS BELOW 12,000 FEET
WITH NO SIGNIFICANT WEATHER AND/OR OBSTRUCTIONS TO VISIBILITY.

WYZ001-242300-
YELLOWSTONE NATIONAL PARK

CITY           SKY/WX    TMP DP  RH WIND       PRES   REMARKS
LK YELLOWSTONE   N/A     23   8  52 W8        30.19S WCI  14
W YELLOWSTONE  NOT AVBL

$$
WYZ002>013-054>058-071-098>099-242300-
NORTHERN WYOMING

CITY           SKY/WX    TMP DP  RH WIND       PRES   REMARKS
JACKSON        CLOUDY    27  14  59 SW9       30.24S WCI  17
CODY           PTSUNNY   37   7  28 W15G21    30.13S WCI  28
GREYBULL       CLOUDY    39  21  48 N21G29    30.13S WCI  29
WORLAND        PTSUNNY   36  21  54 NW8       30.16R WCI  30
SHERIDAN       PTSUNNY   34  27  75 NW18      30.11R WCI  23
BUFFALO        MOSUNNY   33  18  53 NW14G26   30.08R WCI  23
GILLETTE       PTSUNNY   35  21  56 NW21      30.04  WCI  24
HULETT           N/A     32  27  80 MISG        N/A
NEWCASTLE      MOCLDY    34  23  64 N23G29    30.02R WCI  22

$$
WYZ014>020-022>026-101>103-242300-
CENTRAL WYOMING

CITY           SKY/WX    TMP DP  RH WIND       PRES   REMARKS
BIG PINEY      MOSUNNY   40  11  30 N21G29    30.23R WCI  30
PINEDALE       PTCLDY    25  16  68 NW18G26   30.22R WCI  11
DUBOIS         FAIR      23  10  58 NW16G31   30.16R WCI  10
LANDER         MOSUNNY   37   6  27 NW20G30   30.14R WCI  27
RIVERTON       MOSUNNY   36  14  40 NW15G24   30.16R WCI  27
CASPER         PTSUNNY   34  14  43 NW21      30.11R WCI  22
DOUGLAS        CLOUDY   N/A N/A N/A NW16G22   30.08R

$$
WYZ021-027>030-104>119-242300-
SOUTHERN WYOMING

CITY           SKY/WX    TMP DP  RH WIND       PRES   REMARKS
EVANSTON       MOSUNNY   29  12  49 NW17      30.29R WCI  17
KEMMERER       PTCLDY    27  14  59 NW25G33   30.25R WCI  11
FORT BRIDGER   FAIR      31  15  53 NW18G25   30.30R WCI  19
ROCK SPRINGS   MOSUNNY   29  10  45 NW23G33   30.20R WCI  15
DIXON          FAIR      32  13  46 NW10      30.19R WCI  23
RAWLINS        MOSUNNY   26  13  57 NW10G26   30.14R WCI  16
SARATOGA       CLOUDY    30  16  55 NW14G21   30.13R WCI  20
LARAMIE        PTSUNNY   25  13  60 NW24G38   30.05R WCI   9
CHEYENNE       LGT SNOW  28  21  75 N20G29    30.04R VSB 3/4 WCI  15
TORRINGTON     PTSUNNY   37  17  44 N26G41    30.03R WCI  25
PINE BLUFFS    CLOUDY    32  21  64 N18G28    30.04R WCI  20

$$


USA.gov is the U.S. government's official web portal to all federal, state and local government web resources and services.